EW4711 Weather Reports


Display with metric or nautical units.
time (UTC)temp
F
wind
direction
speed
MPH
gust
MPH
rain 1hr
in
rain 24hr
in
rain mn
in
humidity
%
barometer
mb
20260507060104 41 274 0.0 1.0 0.01 0.41 0.01 97 1012.1
20260507055603 41 274 0.0 2.0 0.01 0.41 0.01 97 1012.1
20260507055104 41 274 1.0 2.0 0.01 0.41 0.01 97 1012.1
20260507054604 41 274 0.0 0.0 0.01 0.42 0.01 97 1012.2
20260507054105 41 274 0.0 0.0 0.01 0.42 0.01 97 1012.3
20260507053604 41 274 0.0 0.0 0.01 0.42 0.01 97 1012.3
20260507052604 41 274 0.0 1.0 0.00 0.42 0.00 97 1012.2
20260507052103 41 274 0.0 1.0 0.00 0.42 0.00 97 1012.2
20260507051603 41 274 0.0 1.0 0.00 0.43 0.00 97 1012.4
20260507051104 41 274 0.0 2.0 0.00 0.43 0.00 97 1012.5
20260507050104 41 39 0.0 0.0 0.00 0.44 0.00 96 1012.5
20260507045604 41 39 0.0 0.0 0.00 0.45 0.00 97 1012.4
20260507044604 41 39 0.0 1.0 0.00 0.46 0.00 97 1012.6
20260507044103 41 39 0.0 0.0 0.00 0.46 0.00 97 1012.5
20260507043603 41 39 0.0 0.0 0.00 0.46 0.00 96 1012.6
20260507043104 41 39 0.0 0.0 0.00 0.47 0.00 96 1012.6
20260507042604 41 39 0.0 1.0 0.00 0.47 0.00 97 1012.6
20260507042103 41 39 0.0 1.0 0.00 0.47 0.00 97 1012.6
20260507041604 41 39 0.0 1.0 0.00 0.47 0.00 97 1012.6
20260507041104 41 39 0.0 0.0 0.00 0.47 0.00 96 1012.4
20260507040604 42 39 0.0 0.0 0.00 0.47 0.00 96 1012.5
20260507040104 42 39 0.0 0.0 0.00 0.47 0.00 96 1012.5
20260507035603 42 39 0.0 2.0 0.00 0.47 0.47 96 1012.5
20260507035105 42 37 1.0 2.0 0.00 0.47 0.47 97 1012.4
20260507034604 42 288 0.0 0.0 0.00 0.47 0.47 96 1012.5
20260507034103 42 288 0.0 0.0 0.00 0.47 0.47 96 1012.4
20260507033604 42 288 0.0 0.0 0.00 0.47 0.47 96 1012.4
20260507033103 42 288 0.0 0.0 0.00 0.47 0.47 96 1012.4
20260507032604 42 288 0.0 0.0 0.00 0.47 0.47 96 1012.4
20260507032104 42 288 0.0 1.0 0.00 0.47 0.47 96 1012.4
20260507031604 42 288 1.0 2.0 0.00 0.48 0.47 96 1012.5
20260507031104 42 288 0.0 1.0 0.00 0.48 0.47 96 1012.5
20260507030605 42 288 1.0 2.0 0.00 0.48 0.47 96 1012.5
20260507030104 42 288 0.0 0.0 0.00 0.49 0.47 96 1012.5
20260507025603 42 288 0.0 1.0 0.00 0.49 0.47 96 1012.3
20260507025104 42 288 0.0 0.0 0.00 0.50 0.47 96 1012.2
20260507024603 42 288 0.0 2.0 0.00 0.50 0.47 96 1012.3
20260507024104 42 288 0.0 2.0 0.00 0.51 0.47 96 1012.3
20260507023604 42 288 1.0 2.0 0.00 0.51 0.47 96 1012.2
20260507022604 42 288 1.0 2.0 0.00 0.52 0.47 96 1012.3
20260507022104 42 288 0.0 2.0 0.00 0.53 0.47 96 1012.3
20260507021604 42 288 1.0 2.0 0.00 0.53 0.47 96 1012.3
20260507021103 42 293 0.0 2.0 0.00 0.53 0.47 96 1012.4
20260507020603 42 303 1.0 3.0 0.00 0.53 0.47 96 1012.6
20260507020104 42 293 1.0 2.0 0.00 0.53 0.47 96 1012.7
20260507015604 42 293 1.0 3.0 0.00 0.53 0.47 96 1012.8
20260507014604 42 282 0.0 2.0 0.00 0.54 0.47 96 1012.7
20260507014103 42 251 0.0 1.0 0.00 0.54 0.47 96 1012.7
20260507013604 42 251 1.0 2.0 0.00 0.55 0.47 96 1012.6
20260507013103 42 251 1.0 2.0 0.00 0.55 0.47 96 1012.5
20260507012604 42 251 0.0 1.0 0.00 0.55 0.47 96 1012.3
20260507012104 42 251 0.0 2.0 0.00 0.55 0.47 96 1012.3
20260507011604 42 262 1.0 2.0 0.00 0.56 0.47 96 1012.3
20260507010104 42 343 0.0 2.0 0.00 0.56 0.47 96 1012.1
20260507005604 42 343 1.0 2.0 0.00 0.56 0.47 96 1012.1
20260507005103 42 343 1.0 2.0 0.00 0.57 0.47 95 1012.0
20260507004604 42 343 0.0 0.0 0.00 0.57 0.47 96 1012.0
20260507004104 42 343 0.0 0.0 0.00 0.58 0.47 95 1011.9
20260507003604 42 343 0.0 0.0 0.00 0.59 0.47 95 1011.8
20260507003104 42 343 0.0 0.0 0.00 0.60 0.47 95 1011.8
20260507002104 42 343 0.0 2.0 0.00 0.62 0.47 95 1011.8
20260507000603 42 343 0.0 0.0 0.00 0.65 0.47 95 1011.7
20260507000104 42 343 0.0 0.0 0.00 0.67 0.47 95 1011.6
20260506235603 43 343 0.0 0.0 0.00 0.67 0.47 95 1011.6
20260506234604 43 326 2.0 3.0 0.00 0.69 0.47 96 1011.7
20260506234103 43 341 1.0 3.0 0.00 0.70 0.47 96 1011.7
20260506233603 43 347 1.0 3.0 0.00 0.71 0.47 95 1011.7
20260506233104 43 345 2.0 3.0 0.00 0.71 0.47 95 1011.6
20260506232603 43 348 2.0 7.0 0.00 0.72 0.47 96 1011.6
20260506231103 43 1 2.0 3.0 0.00 0.74 0.47 96 1011.4
20260506225603 43 2 2.0 6.0 0.01 0.76 0.47 96 1011.1
20260506225103 43 47 1.0 3.0 0.01 0.76 0.47 96 1011.0
20260506224603 43 3 2.0 6.0 0.01 0.77 0.47 96 1011.0
20260506224103 43 29 1.0 3.0 0.02 0.78 0.47 96 1010.9
20260506223603 43 25 2.0 3.0 0.02 0.78 0.47 96 1010.9
20260506223103 42 39 1.0 2.0 0.02 0.79 0.47 96 1010.9
20260506222603 42 32 2.0 3.0 0.03 0.80 0.47 95 1010.8
20260506222103 42 30 3.0 8.0 0.03 0.81 0.47 95 1010.7
20260506221603 42 38 2.0 8.0 0.04 0.83 0.47 96 1010.6
20260506221103 42 42 2.0 6.0 0.04 0.84 0.47 96 1010.5
20260506214603 42 338 4.0 8.0 0.06 0.89 0.46 95 1010.6
20260506214103 42 352 4.0 9.0 0.05 0.89 0.45 94 1010.5
20260506213103 42 351 4.0 8.0 0.06 0.92 0.45 94 1010.3
20260506212602 42 8 5.0 13.0 0.06 0.93 0.44 93 1010.2
20260506212103 43 11 6.0 16.0 0.06 0.94 0.44 93 1010.1
20260506211103 44 352 10.0 16.0 0.05 0.95 0.43 92 1009.7
20260506210603 46 343 8.0 14.0 0.04 0.95 0.42 92 1009.7
20260506205603 47 26 5.0 12.0 0.03 0.97 0.41 92 1009.4
20260506204603 48 354 3.0 15.0 0.02 0.98 0.40 91 1009.4
20260506203604 50 4 5.0 12.0 0.01 1.00 0.39 89 1009.2
20260506203103 50 342 6.0 9.0 0.01 1.01 0.39 89 1009.1
20260506202603 50 345 1.0 3.0 0.00 1.00 0.38 89 1008.9
20260506202103 50 325 2.0 5.0 0.00 1.00 0.38 88 1008.9
20260506201603 51 298 1.0 3.0 0.00 1.00 0.38 88 1008.9
20260506201103 51 264 1.0 3.0 0.00 1.00 0.38 87 1008.9
20260506200602 51 255 1.0 3.0 0.00 1.00 0.38 87 1008.9
20260506195103 51 237 2.0 3.0 0.00 1.00 0.38 87 1008.8
20260506194603 51 215 2.0 3.0 0.00 1.00 0.38 87 1008.9
20260506194102 51 193 1.0 3.0 0.00 1.00 0.38 87 1009.0
20260506193103 51 274 2.0 3.0 0.00 1.00 0.38 88 1009.0
20260506192603 51 252 1.0 3.0 0.00 1.00 0.38 88 1008.9
20260506192103 51 222 1.0 2.0 0.00 1.00 0.38 88 1008.9
20260506191603 51 205 1.0 3.0 0.00 1.00 0.38 88 1009.0
20260506191103 51 193 2.0 3.0 0.00 1.00 0.38 87 1008.9
20260506190603 51 141 2.0 3.0 0.00 1.00 0.38 88 1008.9
20260506185103 51 142 0.0 0.0 0.00 1.00 0.38 86 1009.0
20260506184603 51 142 0.0 3.0 0.00 1.00 0.38 85 1008.9
20260506184103 51 142 3.0 3.0 0.00 1.00 0.38 86 1008.9
20260506183603 51 179 1.0 3.0 0.00 1.00 0.38 86 1008.9
20260506183103 52 212 1.0 3.0 0.00 1.00 0.38 87 1008.9
20260506182603 51 197 3.0 7.0 0.00 1.00 0.38 88 1009.0
20260506182103 52 155 3.0 8.0 0.00 1.00 0.38 88 1009.1
20260506181103 50 194 2.0 3.0 0.00 1.00 0.38 91 1008.9
20260506180603 49 139 2.0 3.0 0.00 1.00 0.38 91 1008.9
20260506180103 49 175 2.0 3.0 0.00 1.00 0.38 91 1009.0
20260506174603 49 123 1.0 3.0 0.00 1.00 0.38 92 1009.0
20260506174103 49 175 0.0 1.0 0.00 1.00 0.38 92 1009.2
20260506173603 48 147 0.0 1.0 0.00 1.00 0.38 92 1009.2
20260506173104 48 148 1.0 2.0 0.00 1.00 0.38 92 1009.3
20260506172603 48 172 0.0 2.0 0.00 1.00 0.38 92 1009.3
20260506172103 48 172 0.0 1.0 0.00 1.00 0.38 93 1009.3
20260506171103 48 172 2.0 3.0 0.00 1.00 0.38 93 1009.2
20260506170603 48 163 2.0 3.0 0.00 1.00 0.38 94 1009.2
20260506165604 48 176 2.0 3.0 0.00 1.00 0.38 95 1008.9
20260506165103 48 169 2.0 3.0 0.00 1.00 0.38 95 1009.0
20260506164603 48 107 2.0 3.0 0.00 1.00 0.38 95 1008.8
20260506164102 47 175 1.0 3.0 0.00 1.00 0.38 95 1008.9
20260506163603 47 139 2.0 3.0 0.00 1.00 0.38 95 1008.8
20260506162602 47 117 0.0 3.0 0.00 1.00 0.38 95 1009.0
20260506162104 47 124 2.0 3.0 0.00 1.00 0.38 95 1009.0
20260506161603 47 120 2.0 3.0 0.00 1.00 0.38 95 1009.2
20260506161103 47 122 2.0 3.0 0.00 1.00 0.38 96 1009.1
20260506160602 47 99 1.0 3.0 0.00 1.00 0.38 95 1009.0
20260506160103 47 119 2.0 3.0 0.00 1.00 0.38 96 1009.0
20260506155603 47 160 2.0 5.0 0.00 1.00 0.38 96 1008.9
20260506155103 47 139 3.0 6.0 0.00 1.01 0.38 97 1008.8
20260506154603 47 124 2.0 3.0 0.00 1.01 0.38 96 1008.9
20260506154103 47 133 0.0 2.0 0.00 1.01 0.38 97 1008.9
20260506153603 47 136 2.0 3.0 0.00 1.01 0.38 97 1009.0
20260506153103 47 115 1.0 2.0 0.00 1.01 0.38 97 1009.0
20260506152603 47 131 2.0 3.0 0.00 1.01 0.38 97 1008.8
20260506152103 47 140 3.0 3.0 0.00 1.01 0.38 97 1008.6
20260506151603 47 137 3.0 7.0 0.01 1.01 0.38 97 1008.6
20260506151103 47 129 3.0 5.0 0.01 1.01 0.38 97 1008.5
20260506150604 46 110 2.0 3.0 0.01 1.01 0.38 97 1008.6
20260506145603 46 131 2.0 3.0 0.02 1.01 0.38 97 1008.6
20260506145103 46 148 2.0 3.0 0.02 1.01 0.38 97 1008.6
20260506144603 46 127 1.0 5.0 0.02 1.01 0.38 97 1008.5
20260506144103 46 127 3.0 6.0 0.02 1.01 0.38 98 1008.5
20260506143103 46 120 3.0 6.0 0.02 1.01 0.38 98 1008.5
20260506142603 46 123 1.0 3.0 0.02 1.01 0.38 98 1008.5
20260506142104 45 143 1.0 2.0 0.02 1.01 0.38 98 1008.6
20260506141603 45 149 1.0 3.0 0.01 1.00 0.37 97 1008.6
20260506141103 45 120 1.0 3.0 0.01 1.00 0.37 97 1008.5
20260506140603 45 145 1.0 3.0 0.01 1.00 0.37 97 1008.5
20260506140103 45 167 2.0 3.0 0.01 1.00 0.37 97 1008.4
20260506135605 45 126 2.0 3.0 0.00 0.99 0.36 97 1008.4
20260506135103 45 120 2.0 3.0 0.00 0.99 0.36 97 1008.3
20260506134603 45 99 1.0 2.0 0.00 0.99 0.36 97 1008.3
20260506134103 45 99 2.0 3.0 0.01 0.99 0.36 97 1008.4
20260506133602 45 130 1.0 3.0 0.01 0.99 0.36 97 1008.3
20260506133103 45 142 3.0 5.0 0.01 0.99 0.36 97 1008.1
20260506132103 45 164 3.0 7.0 0.01 0.99 0.36 97 1008.1
20260506131603 45 168 2.0 5.0 0.01 0.99 0.36 98 1008.0
20260506125104 45 155 1.0 3.0 0.02 0.99 0.36 97 1007.9
20260506124603 45 172 2.0 3.0 0.02 0.99 0.36 97 1007.9
20260506124103 44 176 2.0 7.0 0.01 0.98 0.35 97 1007.8
20260506123604 44 154 3.0 7.0 0.01 0.98 0.35 97 1007.6
20260506122603 44 173 4.0 7.0 0.02 0.98 0.35 97 1007.6
20260506122103 44 171 3.0 8.0 0.02 0.98 0.35 97 1007.5
20260506121603 44 158 4.0 8.0 0.03 0.98 0.35 97 1007.4
20260506121103 44 152 4.0 8.0 0.03 0.98 0.35 97 1007.3
20260506120603 44 153 3.0 8.0 0.02 0.97 0.34 97 1007.3
20260506120104 44 145 5.0 9.0 0.02 0.97 0.34 97 1007.3
20260506115603 44 140 4.0 9.0 0.02 0.97 0.34 97 1007.3
20260506115103 44 146 3.0 8.0 0.02 0.97 0.34 97 1007.2
20260506114603 44 128 3.0 8.0 0.03 0.97 0.34 97 1007.2
20260506114103 44 150 3.0 7.0 0.03 0.97 0.34 97 1007.3
20260506113603 43 138 3.0 8.0 0.03 0.97 0.34 97 1007.3
20260506113103 43 121 3.0 8.0 0.02 0.96 0.33 97 1007.4
20260506112103 43 153 3.0 7.0 0.02 0.96 0.33 97 1007.4
20260506111603 43 156 2.0 7.0 0.02 0.95 0.32 97 1007.4
20260506111103 44 152 3.0 7.0 0.02 0.95 0.32 97 1007.4
20260506110603 44 144 3.0 7.0 0.02 0.95 0.32 97 1007.6
20260506105603 44 121 3.0 8.0 0.03 0.95 0.32 97 1007.5
20260506104603 44 138 3.0 5.0 0.03 0.94 0.31 97 1007.4
20260506104103 44 138 2.0 6.0 0.03 0.94 0.31 97 1007.4
20260506103603 44 151 3.0 10.0 0.03 0.94 0.31 97 1007.3
20260506103103 44 160 5.0 12.0 0.04 0.94 0.31 97 1007.2
20260506102103 45 155 4.0 9.0 0.04 0.94 0.31 97 1006.8
20260506101603 45 140 2.0 6.0 0.04 0.93 0.30 97 1006.9
20260506101103 45 128 4.0 9.0 0.04 0.93 0.30 97 1007.0
20260506100603 45 135 3.0 7.0 0.05 0.93 0.30 97 1007.3
20260506100104 45 127 4.0 8.0 0.04 0.92 0.29 97 1007.4
20260506095603 45 144 3.0 9.0 0.04 0.92 0.29 97 1007.4
20260506095103 45 143 3.0 8.0 0.05 0.92 0.29 97 1007.5
20260506094604 45 125 4.0 9.0 0.04 0.91 0.28 97 1007.4
20260506093603 45 132 3.0 6.0 0.05 0.91 0.28 97 1007.4
20260506093103 45 130 3.0 7.0 0.04 0.90 0.27 97 1007.4
20260506092603 45 135 3.0 3.0 0.05 0.90 0.27 97 1007.5
20260506092103 45 111 1.0 3.0 0.05 0.90 0.27 97 1007.7
20260506091603 45 95 1.0 2.0 0.05 0.89 0.26 97 1007.7
20260506090603 45 118 2.0 6.0 0.05 0.88 0.25 97 1007.5
20260506090103 45 99 3.0 8.0 0.06 0.88 0.25 97 1007.6
20260506085103 46 121 3.0 7.0 0.06 0.87 0.24 97 1007.5
20260506084103 46 123 2.0 6.0 0.08 0.87 0.24 97 1007.5
20260506083103 46 115 5.0 8.0 0.08 0.86 0.23 97 1007.3
20260506082604 46 121 2.0 7.0 0.07 0.85 0.22 97 1007.4
20260506082103 46 114 3.0 6.0 0.08 0.85 0.22 97 1007.3
20260506081103 46 114 3.0 8.0 0.08 0.84 0.21 97 1007.2
20260506080604 46 117 3.0 7.0 0.07 0.83 0.20 97 1007.3
20260506073103 46 107 2.0 3.0 0.06 0.78 0.15 97 1007.5
20260506072103 46 124 1.0 3.0 0.05 0.77 0.14 97 1007.5
20260506070603 46 122 3.0 7.0 0.05 0.76 0.13 97 1007.4
20260506070103 46 111 3.0 8.0 0.05 0.75 0.12 97 1007.4
20260506062103 47 88 2.0 3.0 0.04 0.89 0.09 97 1007.4
20260506061603 47 65 0.0 1.0 0.04 0.88 0.08 97 1007.8
20260506061104 47 66 1.0 3.0 0.04 0.88 0.08 97 1007.5